When you browse on this site, cookies collect data to enhance your experience and personalize the content and advertising you see.
Visit our Privacy Policy to learn more. By continuing to use the site, you agree to this use of cookies and data.
  • In Lithuania
  • List of Countries
  • For 7 days
  • Water Temperature
  • Weather Map
  • Weather Widgets
  • user-avatar
    Login

    Hourly Weather Kitzbuhel

    Today, 22 September, Sunday

    Time Temperature Precipitation Wind Pressure Humidity
    00:00 +10°C° 0 mm 3 mps 678 mmHg 80%
    01:00 +10°C° 0 mm 3 mps 678 mmHg 80%
    02:00 +10°C° 0 mm 2 mps 678 mmHg 77%
    03:00 +10°C° 0 mm 2 mps 677 mmHg 75%
    04:00 +10°C° 0 mm 2 mps 677 mmHg 73%
    05:00 +10°C° 0 mm 2 mps 677 mmHg 71%
    06:00 +10°C° 0 mm 2 mps 677 mmHg 69%
    07:00 +12°C° 0 mm 2 mps 677 mmHg 67%
    08:00 +14°C° 0 mm 1 mps 677 mmHg 62%
    09:00 +18°C° 0 mm 1 mps 678 mmHg 56%
    10:00 +18°C° 0 mm 0 mps 678 mmHg 50%
    11:00 +19°C° 0 mm 0 mps 678 mmHg 48%
    12:00 +22°C° 0 mm 1 mps 678 mmHg 46%
    13:00 +24°C° 0 mm 1 mps 678 mmHg 45%
    14:00 +23°C° 0 mm 1 mps 677 mmHg 49%
    15:00 +22°C° 0 mm 1 mps 677 mmHg 53%
    16:00 +22°C° 0 mm 1 mps 677 mmHg 57%
    17:00 +20°C° 0 mm 1 mps 676 mmHg 67%
    18:00 +16°C° 0 mm 1 mps 676 mmHg 76%
    19:00 +14°C° 0 mm 1 mps 675 mmHg 86%
    20:00 +14°C° 0 mm 1 mps 676 mmHg 85%
    21:00 +14°C° 0 mm 1 mps 676 mmHg 84%
    22:00 +14°C° 0 mm 2 mps 676 mmHg 83%
    23:00 +13°C° 0 mm 2 mps 675 mmHg 83%

    Tomorrow, 23 September, Monday

    Time Temperature Precipitation Wind Pressure Humidity
    00:00 +13°C° 0 mm 2 mps 675 mmHg 82%
    01:00 +13°C° 0 mm 2 mps 675 mmHg 82%
    02:00 +13°C° 0 mm 2 mps 675 mmHg 82%
    03:00 +13°C° 0 mm 2 mps 675 mmHg 82%
    04:00 +12°C° 0 mm 1 mps 675 mmHg 82%
    05:00 +13°C° 0 mm 1 mps 675 mmHg 83%
    06:00 +13°C° 0 mm 1 mps 675 mmHg 84%
    07:00 +13°C° 0 mm 1 mps 675 mmHg 85%
    08:00 +13°C° 1 mm 1 mps 676 mmHg 89%
    09:00 +13°C° 1 mm 1 mps 676 mmHg 92%
    10:00 +13°C° 1 mm 2 mps 676 mmHg 96%
    11:00 +12°C° 1.6 mm 2 mps 676 mmHg 96%
    12:00 +12°C° 1.6 mm 2 mps 676 mmHg 97%
    13:00 +11°C° 1.6 mm 1 mps 676 mmHg 98%
    14:00 +11°C° 2.3 mm 1 mps 676 mmHg 98%
    15:00 +11°C° 2.3 mm 1 mps 676 mmHg 98%
    16:00 +10°C° 2.3 mm 1 mps 676 mmHg 98%
    17:00 +10°C° 1.5 mm 1 mps 676 mmHg 97%
    18:00 +10°C° 1.5 mm 1 mps 676 mmHg 97%
    19:00 +10°C° 1.5 mm 1 mps 677 mmHg 97%
    20:00 +9°C° 0.2 mm 1 mps 677 mmHg 97%
    21:00 +9°C° 0.2 mm 1 mps 677 mmHg 96%
    22:00 +9°C° 0.2 mm 1 mps 677 mmHg 96%
    23:00 +9°C° 0.1 mm 1 mps 677 mmHg 96%

    Day after tomorrow, 24 September, Tuesday

    Time Temperature Precipitation Wind Pressure Humidity
    00:00 +9°C° 0.1 mm 1 mps 677 mmHg 96%
    01:00 +8°C° 0.1 mm 0 mps 677 mmHg 95%
    02:00 +9°C° 0 mm 1 mps 676 mmHg 95%
    03:00 +8°C° 0 mm 1 mps 676 mmHg 95%
    04:00 +8°C° 0 mm 1 mps 675 mmHg 94%
    05:00 +8°C° 0 mm 1 mps 675 mmHg 94%
    06:00 +8°C° 0 mm 1 mps 675 mmHg 93%
    07:00 +8°C° 0 mm 1 mps 675 mmHg 92%
    08:00 +11°C° 0 mm 1 mps 675 mmHg 85%
    09:00 +12°C° 0 mm 0 mps 675 mmHg 77%
    10:00 +14°C° 0 mm 0 mps 676 mmHg 70%
    11:00 +16°C° 0 mm 0 mps 676 mmHg 64%
    12:00 +17°C° 0 mm 0 mps 675 mmHg 58%
    13:00 +19°C° 0 mm 0 mps 675 mmHg 53%
    14:00 +20°C° 0 mm 1 mps 675 mmHg 58%
    15:00 +19°C° 0 mm 1 mps 674 mmHg 63%
    16:00 +18°C° 0 mm 1 mps 674 mmHg 69%
    17:00 +15°C° 0.1 mm 1 mps 674 mmHg 76%
    18:00 +14°C° 0.1 mm 1 mps 674 mmHg 83%
    19:00 +11°C° 0.1 mm 0 mps 674 mmHg 90%
    20:00 +11°C° 0 mm 0 mps 674 mmHg 90%
    21:00 +11°C° 0 mm 0 mps 674 mmHg 90%
    22:00 +11°C° 0 mm 0 mps 674 mmHg 90%
    23:00 +12°C° 0.1 mm 1 mps 674 mmHg 92%

    25 September, Wednesday

    Time Temperature Precipitation Wind Pressure Humidity
    00:00 +11°C° 0.1 mm 1 mps 674 mmHg 93%
    01:00 +11°C° 0.1 mm 1 mps 673 mmHg 95%
    02:00 +11°C° 0 mm 1 mps 673 mmHg 94%
    03:00 +10°C° 0 mm 0 mps 673 mmHg 94%
    04:00 +10°C° 0 mm 0 mps 673 mmHg 93%
    05:00 +11°C° 0.5 mm 1 mps 673 mmHg 94%
    06:00 +11°C° 0.5 mm 1 mps 673 mmHg 96%
    07:00 +11°C° 0.5 mm 1 mps 673 mmHg 97%
    08:00 +10°C° 2.2 mm 1 mps 673 mmHg 97%
    09:00 +10°C° 2.2 mm 1 mps 673 mmHg 97%
    10:00 +10°C° 2.2 mm 1 mps 673 mmHg 97%
    11:00 +10°C° 1.2 mm 1 mps 673 mmHg 97%
    12:00 +10°C° 1.2 mm 1 mps 673 mmHg 96%
    13:00 +9°C° 1.2 mm 0 mps 674 mmHg 96%
    14:00 +10°C° 0.5 mm 1 mps 673 mmHg 96%
    15:00 +10°C° 0.5 mm 1 mps 673 mmHg 96%
    16:00 +10°C° 0.5 mm 1 mps 673 mmHg 96%
    17:00 +9°C° 0.1 mm 1 mps 674 mmHg 96%
    18:00 +9°C° 0.1 mm 1 mps 674 mmHg 96%
    19:00 +9°C° 0.1 mm 1 mps 674 mmHg 96%
    20:00 +9°C° 0 mm 1 mps 675 mmHg 95%
    21:00 +8°C° 0 mm 1 mps 675 mmHg 94%
    22:00 +8°C° 0 mm 1 mps 675 mmHg 94%
    23:00 +8°C° 0 mm 1 mps 675 mmHg 94%

    26 September, Thursday

    Time Temperature Precipitation Wind Pressure Humidity
    00:00 +7°C° 0 mm 1 mps 675 mmHg 94%
    01:00 +7°C° 0 mm 1 mps 675 mmHg 94%
    02:00 +7°C° 0 mm 1 mps 675 mmHg 94%
    03:00 +7°C° 0 mm 1 mps 675 mmHg 93%
    04:00 +6°C° 0 mm 1 mps 675 mmHg 93%
    05:00 +7°C° 0 mm 1 mps 675 mmHg 92%
    06:00 +8°C° 0 mm 1 mps 676 mmHg 91%
    07:00 +8°C° 0 mm 1 mps 676 mmHg 89%
    08:00 +10°C° 0 mm 1 mps 676 mmHg 82%
    09:00 +12°C° 0 mm 1 mps 677 mmHg 76%
    10:00 +14°C° 0 mm 0 mps 678 mmHg 69%
    11:00 +15°C° 0 mm 0 mps 678 mmHg 62%
    12:00 +17°C° 0 mm 0 mps 678 mmHg 55%
    13:00 +18°C° 0 mm 0 mps 678 mmHg 48%
    14:00 +20°C° 0 mm 1 mps 677 mmHg 51%
    15:00 +19°C° 0 mm 1 mps 677 mmHg 54%
    16:00 +19°C° 0 mm 1 mps 677 mmHg 58%
    17:00 +15°C° 0 mm 1 mps 677 mmHg 67%
    18:00 +13°C° 0 mm 1 mps 676 mmHg 77%
    19:00 +11°C° 0 mm 1 mps 676 mmHg 86%
    20:00 +11°C° 0 mm 1 mps 676 mmHg 85%
    21:00 +11°C° 0 mm 1 mps 677 mmHg 83%
    22:00 +11°C° 0 mm 1 mps 677 mmHg 82%
    23:00 +11°C° 0 mm 1 mps 677 mmHg 81%

    27 September, Friday

    Time Temperature Precipitation Wind Pressure Humidity
    00:00 +9°C° 0 mm 2 mps 677 mmHg 80%
    01:00 +9°C° 0 mm 2 mps 676 mmHg 79%
    02:00 +10°C° 0 mm 2 mps 676 mmHg 76%
    03:00 +12°C° 0 mm 2 mps 676 mmHg 73%
    04:00 +12°C° 0 mm 2 mps 676 mmHg 70%
    05:00 +12°C° 0 mm 2 mps 676 mmHg 70%
    06:00 +13°C° 0 mm 2 mps 676 mmHg 71%
    07:00 +13°C° 0 mm 2 mps 676 mmHg 71%
    08:00 +15°C° 0 mm 1 mps 676 mmHg 66%
    09:00 +18°C° 0 mm 1 mps 677 mmHg 62%
    10:00 +19°C° 0 mm 1 mps 677 mmHg 57%
    11:00 +20°C° 0 mm 1 mps 677 mmHg 55%
    12:00 +21°C° 0 mm 1 mps 677 mmHg 52%
    13:00 +22°C° 0 mm 1 mps 676 mmHg 50%
    14:00 +21°C° 0 mm 1 mps 676 mmHg 58%
    15:00 +20°C° 0 mm 1 mps 675 mmHg 65%
    16:00 +19°C° 0 mm 1 mps 675 mmHg 72%
    17:00 +16°C° 0 mm 1 mps 674 mmHg 77%
    18:00 +15°C° 0 mm 2 mps 674 mmHg 81%
    19:00 +13°C° 0 mm 2 mps 673 mmHg 86%
    20:00 +13°C° 0 mm 2 mps 673 mmHg 86%
    21:00 +12°C° 0 mm 2 mps 673 mmHg 86%
    22:00 +12°C° 0 mm 2 mps 673 mmHg 87%
    23:00 +12°C° 0 mm 2 mps 673 mmHg 88%
    Show more